#timestamp,LO_Frequency,Hit,StdDev 
1557028815.6,286047000.8,N
1557028835.5,286047000.7,N
1557028855.3,286046998.6,N
1557028875.1,286046999.3,N
1557028895.9,286047001.2,N
1557028915.7,286046999.3,N
1557028935.5,286047001.1,N
1557028955.4,286047000.1,N
1557028975.2,286047000.7,N
1557028995.0,286047002.6,N
1557028995.9,286047002.6,N
1557029015.7,286047000.2,N
1557029035.6,286047000.0,N
1557029055.4,286047001.6,N
1557029075.2,286047001.9,N
1557029095.1,286047001.9,N
1557029096.0,286047001.9,N
1557029115.8,286047003.0,N
1557029135.6,286047001.7,N
1557029155.5,286047005.5,Y
1557029175.3,286047003.0,P
1557029195.1,286047002.7,N
1557029215.9,286047001.0,N
1557029235.7,286047000.8,N
1557029255.5,286047000.3,N
1557029275.4,286047000.9,N
1557029295.2,286047000.3,N
1557029315.0,286047002.5,N
1557029315.9,286047002.5,N
1557029335.8,286047002.8,N
1557029355.6,286046999.9,N
1557029375.4,286047000.6,N
1557029395.2,286047000.9,N
1557029415.1,286047000.5,N
1557029416.0,286047000.5,N
1557029435.8,286047000.7,N
1557029455.6,286046999.4,N
1557029475.5,286046997.7,N
1557029495.3,286046999.0,N
1557029515.1,286046998.8,N
1557029535.9,286047000.8,N
1557029555.7,286047000.2,N
1557029575.5,286047000.5,N
1557029595.4,286046998.2,N
1557029615.2,286046996.5,N
1557029635.0,286046994.9,Y
1557029635.9,286046994.9,P
1557029655.8,286046996.1,N
1557029675.6,286046994.6,N
1557029695.4,286046991.8,Y
1557029715.3,286046994.9,P
1557029735.1,286046997.2,P
1557029736.0,286046997.2,N
1557029755.8,286046999.1,N
1557029775.6,286046996.7,N
1557029795.5,286046997.6,N
1557029815.3,286046995.4,Y
1557029835.1,286046999.1,P
1557029855.9,286046999.1,N
1557029875.7,286046996.8,P
1557029895.5,286046999.5,N
1557029915.4,286046997.4,N
1557029935.2,286046997.4,N
1557029955.0,286046995.5,Y
1557029955.9,286046995.5,P
1557029975.8,286046996.5,N
1557029995.6,286046996.7,P
1557030015.4,286046997.2,Y
1557030035.3,286047000.1,P
1557030055.1,286047001.5,N
1557030075.8,286047000.4,N
1557030095.7,286047002.4,N
1557030115.5,286047002.5,N
1557030135.3,286047003.8,N
1557030155.2,286047001.3,N
1557030175.9,286047003.4,N
1557030195.7,286047005.6,N
1557030215.6,286047005.4,N
1557030235.4,286047003.5,N
1557030255.2,286047003.5,N
1557030275.0,286047004.1,N
1557030275.9,286047004.1,N
1557030295.8,286047001.7,N
1557030315.6,286047002.1,N
1557030335.4,286046999.7,N
1557030355.3,286047002.3,N
1557030375.1,286047002.8,N
1557030395.8,286047000.1,N
1557030415.7,286047001.1,N
1557030435.5,286047000.8,N
1557030455.3,286047000.8,N
1557030475.2,286046998.2,N
1557030495.9,286047000.9,N
1557030515.7,286046998.1,N
1557030535.5,286046999.0,N
1557030555.4,286047000.3,N
1557030575.2,286047002.0,N
1557030595.0,286047000.1,N
1557030595.9,286047000.1,N
1557030615.8,286047002.4,N
1557030635.6,286047005.4,N
1557030655.4,286047006.5,Y
1557030675.3,286047006.8,P
1557030695.1,286047006.8,N
1557030715.8,286047004.6,N
1557030735.7,286047004.9,N
1557030755.5,286047007.4,Y
1557030775.3,286047000.1,P
1557030795.2,286047001.5,N
1557030815.9,286047002.4,N
1557030835.7,286046998.1,N
1557030855.6,286047002.9,N
1557030875.4,286047003.8,N
1557030895.2,286047001.9,N
1557030915.0,286047001.3,N
1557030915.9,286047001.3,N
1557030935.8,286047002.5,N
1557030955.6,286047000.5,N
1557030975.4,286046998.1,N
1557030995.3,286046999.2,N
1557031015.1,286046996.0,N
1557031035.8,286047002.1,N
1557031055.7,286047003.0,N
1557031075.5,286047008.6,Y
1557031095.3,286047004.6,P
1557031115.2,286047010.4,P
1557031135.9,286047005.2,N
1557031155.7,286047005.3,N
1557031175.6,286047005.2,N
1557031195.4,286047005.0,N
1557031215.2,286047005.5,N
1557031235.0,286047006.3,N
1557031235.9,286047006.3,N
1557031255.8,286047007.9,Y
1557031275.6,286047005.7,P
1557031295.4,286047001.3,P
1557031315.3,286047005.8,N
1557031335.1,286047004.8,N
1557031355.8,286047005.0,N
1557031375.7,286047005.0,Y
1557031395.5,286046998.5,P
1557031415.3,286046996.8,N
1557031435.2,286046998.2,N
1557031455.9,286047001.2,N
1557031475.7,286047002.7,N
1557031495.6,286047000.5,N
1557031515.4,286047001.0,N
1557031535.2,286046998.4,N
1557031555.1,286047001.0,N
1557031556.0,286047001.0,N
1557031575.8,286047001.0,N
1557031595.6,286047000.0,N
1557031615.4,286047000.8,N
1557031635.3,286046996.5,N
1557031655.1,286046998.9,N
1557031675.8,286047001.9,N
1557031695.7,286047002.3,N
1557031715.5,286047000.2,N
1557031735.3,286047002.0,N
1557031755.2,286047002.3,N
1557031775.9,286047002.0,N
1557031795.7,286047002.0,N
1557031815.6,286047001.3,N
1557031835.4,286047004.2,N
1557031855.2,286047005.0,N
1557031875.0,286047005.6,N
1557031875.9,286047005.6,N
1557031895.8,286047003.1,N
1557031915.6,286047005.9,N
1557031935.4,286047003.5,N
1557031955.3,286047004.2,N
1557031975.1,286047003.0,N
1557031995.8,286047005.9,N
1557032015.7,286047003.0,N
1557032035.5,286047003.3,N
1557032055.3,286047001.6,N
1557032075.2,286047004.4,N
1557032095.9,286047001.4,N
1557032115.7,286047001.7,N
1557032135.5,286047003.5,N
1557032155.4,286047001.6,N
1557032175.2,286047001.7,N
1557032195.0,286047007.4,Y
1557032195.9,286047007.4,P
1557032215.8,286047002.6,N
1557032235.6,286047004.4,N
1557032255.4,286047006.4,Y
1557032275.3,286047007.1,P
1557032295.1,286047005.8,P
1557032315.8,286047003.1,N
1557032335.7,286047002.9,N
1557032355.5,286047003.0,N
1557032375.3,286047003.9,N
1557032395.2,286047001.5,N
